CZ-6A DEB

Satellite information

Favourite Embed

Satellite Type and Status

DEBRISIN ORBIT

Key statistics

Satellite CZ-6A DEB at a glance.

Uptime

1069

Days in orbit

Revolutions

≈ 14.6

Per day

Orbit

SSO

Sun Synchronous Orbit

Inclination

98.7

Latest

Satellite identification and parameters

Extended collection of information and parameters for CZ-6A DEB.

Object identification

Identified? True

Debris? True

Object name: CZ-6A DEB

International designator: 2022-151ED

Object number (NORAD): 54405

Object ID (CCSDS): 54405

Country: PEOPLES REPUBLIC OF CHINA (PRC)

Current information (Y/N): Y

RCS size: MEDIUM

Orbital parameters

Period: 98.311 minutes

Inclination: 98.6909 deg

SMA: 7056.032 km

Apoapsis: 780.261 km

Periapsis: 575.534 km

RAAN: 4.6584 deg

Eccentricy: 0.01450725

Argument of periapsis: 249.1237 deg

Mean anomaly: 109.4381 deg

Mean motion: 14.64744631 rev/day

Mean motion (dot): 0.00005221 rev/day2

B* drag term: 0.00084936994 1/REarth

Two-line elements (TLE)

Creation date: Oct. 15, 2025, 2:21 a.m.

Reference frame: TEME

Reference center: EARTH

Epoch: Oct. 14, 2025, 11:47 a.m. UTC

TLE line 0: 0 CZ-6A DEB

TLE line 1: 1 54405U 22151ED 25287.49151923 .00005221 00000-0 84937-3 0 9991

TLE line 2: 2 54405 98.6909 4.6584 0145073 249.1237 109.4381 14.64744631155317

Live tracking on map

Real-time ground track for satellite CZ-6A DEB.

In-orbit conjunctions

A list of the most updated potential collisions computed for object CZ-6A DEB.

Target Orbit TCA Probability of collision Miss distance Type
COSMOS 1680 LEO 2025-08-24 12:01:26 0.000437622 651.0 (m) PAYLOAD
THOR ABLESTAR DEB LEO 2024-09-25 17:59:53 0.00135415 209.0 (m) DEBRIS

Associated space launch

Chinese satellite reported for atmospheric/ocean/environmental/spatial parameter research purposes, details TBD.

CZ-6A DEB was lifted into orbit during the mission ‘Long March 6A | Yunhai 3’, on board a Long March 6A space rocket.

The launch took place on Nov. 11, 2022, 10:52 p.m. from Launch Complex 9A.

For more information about the launch, click the button.

Launch to space Long March 6A | Yunhai 3
Long March 6A | Yunhai 3

Agency: N/A

Status: Launch Successful

Launch date: Nov. 11, 2022, 10:52 p.m. UTC

Rocket: Long March 6A

Launch pad: Launch Complex 9A

Location: Taiyuan Satellite Launch Center, People's Republic of China

...

Latest news about this satellite

There are no fresh news available about this satellite. Check back as we update our databases every day.


Newsletter sign-up

Weekly statistics, charts and insights to help you stay on top of the space industry.